{"data":{"norad_id":37816,"epoch":"2026-05-25T03:42:32.459904Z","epoch_age_seconds":68840,"freshness":"FRESH","line1":"1 37816U 11051A   26145.15454236 -.00000062  00000+0  00000+0 0  9998","line2":"2 37816   0.0952  44.4596 0004022  19.7866 226.8272  1.00272472 53642","mean_motion":1.00272472,"eccentricity":0.0004022,"inclination_deg":0.0952,"raan_deg":44.4596,"arg_perigee_deg":19.7866,"mean_anomaly_deg":226.8272,"bstar":0,"rev_number":5364,"period_min":1436.0870648527,"perigee_km":35769.443793516,"apogee_km":35803.360948987,"semimajor_km":42164.539371251,"source":"CELESTRAK","updated_at":"2026-05-25T13:38:13.904724Z"}}